DLH12S EDDH-EDDS

Flight info

Callsign DLH12S
Flight time 0h 56m
Altitude 35000
Route IDEKO7G/33 IDEKO N850 NIE DCT BERXO DCT SILWE DCT OSBIT P605 TOSTU T726 LBU
Aircraft A320/M-SDE3FGHIRWY/LB1

Departure

Time 2026-05-05 16:40
Airport Hamburg Helmut Schmidt Airport (EDDH)

Arrival

Time 2026-05-05 17:37
Airport Stuttgart Airport (EDDS)
Time Latitude Longitude Altitude Speed Heading
2026-05-05 16:07 53.63373 10.00337 48 ft 0 kts 86°
2026-05-05 16:22 53.63373 10.00324 49 ft 4 kts 86°
2026-05-05 16:22 53.63371 10.00250 45 ft 4 kts 113°
2026-05-05 16:23 53.63399 10.00226 50 ft 1 kts 176°
2026-05-05 16:25 53.63394 10.00226 51 ft 3 kts 176°
2026-05-05 16:26 53.63288 10.00238 51 ft 8 kts 176°
2026-05-05 16:26 53.63239 10.00159 49 ft 5 kts 237°
2026-05-05 16:27 53.63196 10.00069 51 ft 13 kts 232°
2026-05-05 16:27 53.63160 9.99991 51 ft 12 kts 231°
2026-05-05 16:27 53.63104 9.99896 50 ft 11 kts 205°
2026-05-05 16:27 53.63026 9.99933 50 ft 14 kts 151°
2026-05-05 16:28 53.62947 10.00000 49 ft 11 kts 161°
2026-05-05 16:28 53.62900 9.99928 50 ft 6 kts 243°
2026-05-05 16:28 53.62884 9.99874 49 ft 11 kts 243°
2026-05-05 16:28 53.62875 9.99735 49 ft 12 kts 317°
2026-05-05 16:29 53.62896 9.99716 50 ft 0 kts 332°
2026-05-05 16:30 53.62947 9.99673 49 ft 34 kts 333°
2026-05-05 16:30 53.63396 9.99290 51 ft 106 kts 332°
2026-05-05 16:30 53.63999 9.98761 49 ft 47 kts 332°
2026-05-05 16:30 53.64280 9.98525 53 ft 43 kts 332°
2026-05-05 16:31 53.64540 9.98372 52 ft 37 kts 356°
2026-05-05 16:31 53.64664 9.98389 52 ft 3 kts 13°
2026-05-05 16:31 53.64694 9.98418 50 ft 8 kts 45°
2026-05-05 16:31 53.64676 9.98517 51 ft 13 kts 143°
2026-05-05 16:32 53.64580 9.98605 51 ft 18 kts 152°
2026-05-05 16:32 53.64461 9.98709 49 ft 20 kts 153°
2026-05-05 16:32 53.64331 9.98820 51 ft 22 kts 153°
2026-05-05 16:32 53.64193 9.98942 51 ft 23 kts 153°
2026-05-05 16:33 53.64043 9.99070 51 ft 25 kts 153°
2026-05-05 16:33 53.63895 9.99199 50 ft 23 kts 153°
2026-05-05 16:33 53.63762 9.99355 51 ft 23 kts 133°
2026-05-05 16:33 53.63664 9.99579 49 ft 24 kts 125°
2026-05-05 16:34 53.63617 9.99689 51 ft 2 kts 126°
2026-05-05 16:34 53.63598 9.99732 51 ft 8 kts 126°
2026-05-05 16:34 53.63548 9.99849 49 ft 15 kts 126°
2026-05-05 16:34 53.63487 9.99990 50 ft 8 kts 125°
2026-05-05 16:35 53.63483 10.00000 50 ft 0 kts 125°
2026-05-05 16:35 53.63476 10.00017 48 ft 6 kts 126°
2026-05-05 16:35 53.63434 10.00115 51 ft 12 kts 126°
2026-05-05 16:35 53.63365 10.00163 48 ft 11 kts 175°
2026-05-05 16:36 53.63278 10.00174 51 ft 15 kts 177°
2026-05-05 16:36 53.63159 10.00188 51 ft 18 kts 176°
2026-05-05 16:36 53.63050 10.00163 51 ft 15 kts 211°
2026-05-05 16:36 53.62982 10.00089 47 ft 11 kts 212°
2026-05-05 16:37 53.62928 10.00013 50 ft 10 kts 235°
2026-05-05 16:37 53.62898 9.99918 50 ft 9 kts 244°
2026-05-05 16:37 53.62866 9.99809 49 ft 13 kts 245°
2026-05-05 16:37 53.62897 9.99716 50 ft 0 kts 332°
2026-05-05 16:39 53.62967 9.99656 49 ft 41 kts 333°
2026-05-05 16:39 53.63453 9.99244 52 ft 111 kts 332°
2026-05-05 16:40 53.64310 9.98505 52 ft 163 kts 334°
2026-05-05 16:40 53.65395 9.97533 381 ft 182 kts 334°
2026-05-05 16:40 53.66513 9.96548 981 ft 180 kts 337°
2026-05-05 16:40 53.67652 9.95586 1492 ft 192 kts 336°
2026-05-05 16:41 53.68921 9.94521 1994 ft 213 kts 335°
2026-05-05 16:41 53.70246 9.93379 2969 ft 215 kts 332°
2026-05-05 16:41 53.71263 9.91525 3811 ft 224 kts 294°
2026-05-05 16:41 53.71425 9.88823 4409 ft 248 kts 260°
2026-05-05 16:42 53.70952 9.85908 5002 ft 265 kts 252°
2026-05-05 16:42 53.70349 9.82942 5928 ft 268 kts 251°
2026-05-05 16:42 53.69713 9.79980 6930 ft 268 kts 250°
2026-05-05 16:42 53.69078 9.77011 7858 ft 270 kts 251°
2026-05-05 16:43 53.68450 9.74007 8790 ft 272 kts 251°
2026-05-05 16:43 53.67831 9.70967 9699 ft 276 kts 251°
2026-05-05 16:43 53.67141 9.67911 10310 ft 289 kts 241°
2026-05-05 16:43 53.65759 9.65284 10575 ft 315 kts 215°
2026-05-05 16:44 53.63662 9.63951 11090 ft 332 kts 192°
2026-05-05 16:44 53.61362 9.63320 11835 ft 337 kts 191°
2026-05-05 16:44 53.59066 9.62712 12577 ft 341 kts 191°
2026-05-05 16:44 53.56707 9.62091 13330 ft 345 kts 191°
2026-05-05 16:45 53.54319 9.61459 14039 ft 350 kts 191°
2026-05-05 16:45 53.51905 9.60815 14725 ft 353 kts 191°
2026-05-05 16:45 53.49462 9.60160 15401 ft 356 kts 191°
2026-05-05 16:45 53.47005 9.59505 16073 ft 359 kts 191°
2026-05-05 16:46 53.44523 9.58840 16744 ft 363 kts 191°
2026-05-05 16:46 53.42021 9.58165 17397 ft 366 kts 192°
2026-05-05 16:46 53.39497 9.57478 18049 ft 369 kts 192°
2026-05-05 16:46 53.36948 9.56785 18630 ft 372 kts 192°
2026-05-05 16:47 53.34382 9.56094 19200 ft 374 kts 191°
2026-05-05 16:47 53.31804 9.55408 19783 ft 376 kts 191°
2026-05-05 16:47 53.29208 9.54722 20359 ft 379 kts 191°
2026-05-05 16:47 53.26600 9.54033 20924 ft 381 kts 191°
2026-05-05 16:48 53.23971 9.53334 21484 ft 383 kts 192°
2026-05-05 16:48 53.21339 9.52631 22035 ft 385 kts 192°
2026-05-05 16:48 53.18685 9.51921 22588 ft 387 kts 192°
2026-05-05 16:48 53.16016 9.51209 23133 ft 389 kts 192°
2026-05-05 16:49 53.13329 9.50496 23634 ft 392 kts 192°
2026-05-05 16:49 53.10634 9.49786 23848 ft 392 kts 192°
2026-05-05 16:49 53.07936 9.49074 23903 ft 391 kts 192°
2026-05-05 16:49 53.05286 9.48375 23903 ft 391 kts 192°
2026-05-05 16:50 53.02599 9.47668 23905 ft 391 kts 192°
2026-05-05 16:50 52.99911 9.46961 23905 ft 391 kts 192°
2026-05-05 16:50 52.97225 9.46256 23901 ft 391 kts 192°
2026-05-05 16:50 52.94545 9.45551 23902 ft 391 kts 192°
2026-05-05 16:51 52.91861 9.44844 23904 ft 391 kts 192°
2026-05-05 16:51 52.89177 9.44136 23903 ft 391 kts 192°
2026-05-05 16:51 52.86493 9.43429 23891 ft 390 kts 191°
2026-05-05 16:51 52.83808 9.42726 23901 ft 391 kts 191°
2026-05-05 16:52 52.81122 9.42031 23900 ft 390 kts 191°
2026-05-05 16:52 52.78442 9.41338 23898 ft 390 kts 191°
2026-05-05 16:52 52.75758 9.40642 23896 ft 390 kts 191°
2026-05-05 16:52 52.73069 9.39945 23886 ft 390 kts 191°
2026-05-05 16:53 52.70384 9.39250 23881 ft 390 kts 191°
2026-05-05 16:53 52.67702 9.38556 23878 ft 390 kts 191°
2026-05-05 16:53 52.65015 9.37874 23876 ft 391 kts 189°
2026-05-05 16:53 52.62291 9.37705 23912 ft 396 kts 178°
2026-05-05 16:54 52.59558 9.38351 24358 ft 400 kts 170°
2026-05-05 16:54 52.56826 9.39378 24811 ft 402 kts 170°
2026-05-05 16:54 52.54093 9.40401 25246 ft 404 kts 170°
2026-05-05 16:54 52.51342 9.41428 25661 ft 406 kts 170°
2026-05-05 16:55 52.48581 9.42462 26062 ft 408 kts 171°
2026-05-05 16:55 52.45802 9.43501 26463 ft 411 kts 171°
2026-05-05 16:55 52.43009 9.44544 26855 ft 413 kts 171°
2026-05-05 16:55 52.40242 9.45575 27241 ft 415 kts 171°
2026-05-05 16:56 52.37417 9.46622 27624 ft 417 kts 171°
2026-05-05 16:56 52.34586 9.47670 28029 ft 418 kts 171°
2026-05-05 16:56 52.31741 9.48721 28425 ft 420 kts 171°
2026-05-05 16:56 52.28883 9.49779 28808 ft 422 kts 172°
2026-05-05 16:57 52.26010 9.50842 29155 ft 425 kts 172°
2026-05-05 16:57 52.23117 9.51911 29498 ft 427 kts 172°
2026-05-05 16:57 52.20221 9.52984 29849 ft 429 kts 172°
2026-05-05 16:57 52.17303 9.54065 30146 ft 431 kts 172°
2026-05-05 16:58 52.14372 9.55151 30450 ft 432 kts 172°
2026-05-05 16:58 52.11443 9.56231 30756 ft 432 kts 171°
2026-05-05 16:58 52.08507 9.57308 31073 ft 432 kts 171°
2026-05-05 16:58 52.05576 9.58379 31440 ft 431 kts 171°
2026-05-05 16:59 52.02661 9.59444 31883 ft 428 kts 171°
2026-05-05 16:59 51.99754 9.60508 32319 ft 425 kts 171°
2026-05-05 16:59 51.96881 9.61559 32766 ft 423 kts 172°
2026-05-05 16:59 51.94019 9.62602 33211 ft 420 kts 172°
2026-05-05 17:00 51.91182 9.63637 33651 ft 417 kts 172°
2026-05-05 17:00 51.88358 9.64664 34044 ft 415 kts 172°
2026-05-05 17:00 51.85545 9.65684 34358 ft 414 kts 171°
2026-05-05 17:00 51.82725 9.66705 34636 ft 415 kts 171°
2026-05-05 17:01 51.79910 9.67722 34812 ft 416 kts 171°
2026-05-05 17:01 51.77096 9.68739 34847 ft 412 kts 171°
2026-05-05 17:01 51.71525 9.70749 34842 ft 410 kts 171°
2026-05-05 17:02 51.65963 9.72759 34834 ft 409 kts 172°
2026-05-05 17:02 51.60420 9.74750 34832 ft 407 kts 171°
2026-05-05 17:03 51.54890 9.76719 34825 ft 407 kts 171°
2026-05-05 17:03 51.49399 9.78668 34820 ft 406 kts 171°
2026-05-05 17:04 51.43880 9.80642 34817 ft 406 kts 171°
2026-05-05 17:04 51.38361 9.82624 34802 ft 406 kts 170°
2026-05-05 17:05 51.32836 9.84583 34803 ft 407 kts 170°
2026-05-05 17:05 51.27298 9.86537 34803 ft 407 kts 170°
2026-05-05 17:06 51.21735 9.88040 34802 ft 404 kts 180°
2026-05-05 17:06 51.16133 9.87631 34802 ft 403 kts 185°
2026-05-05 17:07 51.10518 9.87148 34784 ft 405 kts 184°
2026-05-05 17:07 51.04873 9.86668 34784 ft 407 kts 184°
2026-05-05 17:08 50.99208 9.86193 34787 ft 409 kts 184°
2026-05-05 17:08 50.93523 9.85698 34788 ft 409 kts 184°
2026-05-05 17:09 50.87844 9.85203 34824 ft 408 kts 184°
2026-05-05 17:09 50.82192 9.84713 34832 ft 406 kts 183°
2026-05-05 17:10 50.77508 9.84308 34834 ft 405 kts 184°
2026-05-05 17:10 50.70973 9.83730 34831 ft 404 kts 184°
2026-05-05 17:11 50.66274 9.83323 34826 ft 403 kts 183°
2026-05-05 17:11 50.60667 9.82846 34802 ft 404 kts 184°
2026-05-05 17:12 50.55055 9.82366 34804 ft 404 kts 184°
2026-05-05 17:12 50.49440 9.81888 34801 ft 404 kts 184°
2026-05-05 17:13 50.43852 9.81412 34795 ft 405 kts 183°
2026-05-05 17:13 50.38185 9.80930 34795 ft 406 kts 183°
2026-05-05 17:14 50.32582 9.80453 34801 ft 406 kts 183°
2026-05-05 17:14 50.26942 9.79980 34804 ft 406 kts 183°
2026-05-05 17:15 50.21293 9.79514 34809 ft 406 kts 182°
2026-05-05 17:15 50.15630 9.79043 34524 ft 407 kts 182°
2026-05-05 17:16 50.12807 9.78802 34282 ft 406 kts 182°
2026-05-05 17:16 50.09987 9.78562 34043 ft 406 kts 182°
2026-05-05 17:16 50.07171 9.78338 33798 ft 405 kts 180°
2026-05-05 17:16 50.04352 9.78458 33387 ft 405 kts 177°
2026-05-05 17:17 50.01530 9.78643 32984 ft 406 kts 177°
2026-05-05 17:17 49.98716 9.78836 32588 ft 405 kts 176°
2026-05-05 17:17 49.95900 9.79025 32190 ft 404 kts 176°
2026-05-05 17:17 49.93099 9.79209 31805 ft 402 kts 176°
2026-05-05 17:18 49.90307 9.79386 31536 ft 401 kts 176°
2026-05-05 17:18 49.87523 9.79561 31153 ft 398 kts 176°
2026-05-05 17:18 49.84767 9.79735 30589 ft 395 kts 176°
2026-05-05 17:18 49.82027 9.79911 30040 ft 393 kts 176°
2026-05-05 17:19 49.79301 9.80086 29432 ft 391 kts 176°
2026-05-05 17:19 49.76593 9.80261 28892 ft 387 kts 176°
2026-05-05 17:19 49.73917 9.80430 28342 ft 383 kts 176°
2026-05-05 17:19 49.71272 9.80594 27820 ft 379 kts 176°
2026-05-05 17:20 49.68644 9.80743 27309 ft 375 kts 177°
2026-05-05 17:20 49.66046 9.80869 26799 ft 371 kts 177°
2026-05-05 17:20 49.63473 9.80982 26312 ft 368 kts 178°
2026-05-05 17:20 49.60929 9.81131 25833 ft 364 kts 174°
2026-05-05 17:21 49.58439 9.81732 25359 ft 360 kts 169°
2026-05-05 17:21 49.55986 9.82420 24898 ft 358 kts 169°
2026-05-05 17:21 49.53544 9.83102 24402 ft 358 kts 170°
2026-05-05 17:22 49.48552 9.84485 23199 ft 366 kts 170°
2026-05-05 17:22 49.46045 9.85175 22515 ft 365 kts 170°
2026-05-05 17:22 49.43555 9.85860 21849 ft 362 kts 171°
2026-05-05 17:22 49.41085 9.86537 21180 ft 357 kts 171°
2026-05-05 17:23 49.38667 9.87086 20544 ft 345 kts 180°
2026-05-05 17:23 49.36330 9.86638 19923 ft 334 kts 193°
2026-05-05 17:23 49.34089 9.85835 19313 ft 327 kts 194°
2026-05-05 17:23 49.31900 9.85040 18715 ft 320 kts 194°
2026-05-05 17:24 49.29745 9.84287 18123 ft 315 kts 194°
2026-05-05 17:24 49.27617 9.83564 17459 ft 313 kts 194°
2026-05-05 17:24 49.25480 9.82850 16798 ft 315 kts 194°
2026-05-05 17:24 49.23329 9.82143 16153 ft 318 kts 194°
2026-05-05 17:25 49.21157 9.81441 15521 ft 320 kts 194°
2026-05-05 17:25 49.19713 9.80979 15108 ft 321 kts 194°
2026-05-05 17:25 49.16806 9.80067 14293 ft 315 kts 194°
2026-05-05 17:25 49.14674 9.79416 13691 ft 309 kts 194°
2026-05-05 17:26 49.12610 9.78798 13050 ft 304 kts 194°
2026-05-05 17:26 49.10549 9.78181 12383 ft 299 kts 194°
2026-05-05 17:26 49.08523 9.77584 11743 ft 294 kts 194°
2026-05-05 17:26 49.06523 9.77001 11116 ft 290 kts 194°
2026-05-05 17:27 49.04554 9.76429 10508 ft 286 kts 194°
2026-05-05 17:27 49.02617 9.75866 9899 ft 282 kts 194°
2026-05-05 17:27 49.00702 9.75311 9254 ft 278 kts 194°
2026-05-05 17:27 48.98817 9.74769 8602 ft 274 kts 194°
2026-05-05 17:28 48.96962 9.74239 7963 ft 269 kts 194°
2026-05-05 17:28 48.95135 9.73724 7336 ft 265 kts 194°
2026-05-05 17:28 48.93337 9.73219 6835 ft 259 kts 194°
2026-05-05 17:28 48.91631 9.72483 6199 ft 251 kts 210°
2026-05-05 17:29 48.90135 9.71191 5752 ft 240 kts 213°
2026-05-05 17:29 48.88775 9.69925 5547 ft 221 kts 214°
2026-05-05 17:29 48.87462 9.68628 5060 ft 234 kts 220°
2026-05-05 17:29 48.86187 9.66951 4996 ft 240 kts 224°
2026-05-05 17:30 48.85001 9.65310 5005 ft 222 kts 224°
2026-05-05 17:30 48.83901 9.63784 5005 ft 209 kts 224°
2026-05-05 17:30 48.82836 9.62297 5006 ft 207 kts 224°
2026-05-05 17:30 48.81774 9.60821 5006 ft 207 kts 224°
2026-05-05 17:31 48.80714 9.59345 5006 ft 207 kts 224°
2026-05-05 17:31 48.79660 9.57873 4936 ft 205 kts 224°
2026-05-05 17:31 48.78603 9.56412 4613 ft 205 kts 224°
2026-05-05 17:31 48.77561 9.54967 4273 ft 206 kts 224°
2026-05-05 17:32 48.76512 9.53509 4050 ft 202 kts 224°
2026-05-05 17:32 48.75507 9.52109 4007 ft 189 kts 225°
2026-05-05 17:32 48.74761 9.50572 4007 ft 181 kts 243°
2026-05-05 17:32 48.74184 9.48827 4005 ft 187 kts 245°
2026-05-05 17:33 48.73705 9.46993 4004 ft 188 kts 250°
2026-05-05 17:33 48.73315 9.45127 3921 ft 183 kts 252°
2026-05-05 17:33 48.72959 9.43285 3731 ft 182 kts 253°
2026-05-05 17:33 48.72612 9.41443 3527 ft 181 kts 253°
2026-05-05 17:34 48.72268 9.39613 3279 ft 179 kts 253°
2026-05-05 17:34 48.71928 9.37804 3036 ft 178 kts 253°
2026-05-05 17:34 48.71588 9.35991 2800 ft 179 kts 252°
2026-05-05 17:34 48.71261 9.34253 2589 ft 161 kts 254°
2026-05-05 17:35 48.70973 9.32711 2327 ft 146 kts 253°
2026-05-05 17:35 48.70680 9.31279 2113 ft 140 kts 252°
2026-05-05 17:35 48.70404 9.29881 1974 ft 138 kts 255°
2026-05-05 17:35 48.70154 9.28476 1767 ft 138 kts 255°
2026-05-05 17:36 48.69912 9.27088 1559 ft 134 kts 255°
2026-05-05 17:36 48.69648 9.25717 1402 ft 135 kts 253°
2026-05-05 17:36 48.69399 9.24357 1255 ft 134 kts 254°
2026-05-05 17:36 48.69159 9.23094 1221 ft 108 kts 254°
2026-05-05 17:37 48.68994 9.22218 1242 ft 65 kts 254°
2026-05-05 17:37 48.68936 9.21863 1247 ft 39 kts 264°
2026-05-05 17:37 48.68984 9.21485 1256 ft 20 kts 283°
2026-05-05 17:37 48.68998 9.21326 1260 ft 13 kts 256°
2026-05-05 17:38 48.68976 9.21215 1272 ft 1 kts 253°
2026-05-05 17:38 48.68975 9.21213 1272 ft 1 kts 253°
2026-05-05 17:38 48.68963 9.21152 1266 ft 11 kts 253°
2026-05-05 17:38 48.68949 9.21075 1266 ft 6 kts 254°
2026-05-05 17:39 48.68937 9.21011 1267 ft 6 kts 255°
2026-05-05 17:39 48.68923 9.20930 1269 ft 10 kts 255°
2026-05-05 17:39 48.68902 9.20818 1273 ft 12 kts 254°
2026-05-05 17:39 48.68877 9.20682 1275 ft 15 kts 254°
2026-05-05 17:40 48.68848 9.20534 1278 ft 14 kts 253°
2026-05-05 17:40 48.68821 9.20388 1282 ft 14 kts 254°
2026-05-05 17:40 48.68794 9.20247 1285 ft 14 kts 253°
2026-05-05 17:40 48.68768 9.20110 1288 ft 13 kts 255°
2026-05-05 17:41 48.68773 9.19977 1291 ft 13 kts 288°
2026-05-05 17:41 48.68754 9.19833 1294 ft 15 kts 254°
2026-05-05 17:41 48.68725 9.19666 1295 ft 18 kts 253°
2026-05-05 17:41 48.68686 9.19475 1295 ft 19 kts 255°
2026-05-05 17:42 48.68649 9.19277 1295 ft 17 kts 253°
2026-05-05 17:42 48.68680 9.19167 1295 ft 14 kts 342°
2026-05-05 17:42 48.68765 9.19179 1295 ft 12 kts 57°
2026-05-05 17:42 48.68789 9.19296 1295 ft 11 kts 75°
2026-05-05 17:43 48.68829 9.19307 1295 ft 6 kts 340°
2026-05-05 17:43 48.68863 9.19291 1295 ft 4 kts 343°
2026-05-05 17:43 48.68868 9.19289 1295 ft 0 kts 343°
2026-05-05 17:43 48.68870 9.19288 1295 ft 0 kts 343°